"1998/01/01",120,121,119
"1998/01/02",121,123,117
"1998/01/03",118,120,116
"1998/01/04",119,121,117
"1998/01/05",119,120,118
"1998/01/06",119,121,118
"1998/01/07",119,122,118
"1998/01/08",119,122,109
"1998/01/09",120,122,111
"1998/01/10",121,123,119
"1998/01/11",123,125,121
"1998/01/12",125,128,120
"1998/01/13",126,128,124
"1998/01/14",122,125,120
"1998/01/15",117,126,107
"1998/01/16",125,127,123
"1998/01/17",128,130,126
"1998/01/18",126,129,124
"1998/01/19",128,131,126
"1998/01/20",127,129,125
"1998/01/21",128,129,127
"1998/01/22",128,130,122
"1998/01/23",118,123,115
"1998/01/24",115,119,112
"1998/01/25",115,117,114
"1998/01/26",116,117,115
"1998/01/27",117,119,116
"1998/01/28",118,120,116
"1998/01/29",118,119,117
"1998/01/30",118,119,116
"1998/01/31",118,122,117
"1998/02/01",118,124,113
"1998/02/02",119,120,117
"1998/02/03",119,120,118
"1998/02/04",120,122,118
"1998/02/05",120,121,118
"1998/02/06",120,121,119
"1998/02/07",121,123,118
"1998/02/08",121,123,118
"1998/02/09",121,124,117
"1998/02/10",122,124,119
"1998/02/11",122,124,119
"1998/02/12",122,124,120
"1998/02/13",123,124,121
"1998/02/14",122,126,115
"1998/02/15",125,128,115
"1998/02/16",123,126,121
"1998/02/17",120,123,116
"1998/02/18",116,120,114
"1998/02/19",116,117,115
"1998/02/20",117,120,110
"1998/02/21",121,128,112
"1998/02/22",120,122,119
"1998/02/23",121,122,120
"1998/02/24",122,124,115
"1998/02/25",118,120,114
"1998/02/26",117,118,113
"1998/02/27",114,116,112
"1998/02/28",116,118,115
"1998/03/01",119,128,108
"1998/03/02",127,129,124
"1998/03/03",128,131,125
"1998/03/04",124,127,121
"1998/03/05",121,125,112
"1998/03/06",121,122,118
"1998/03/07",118,124,110
"1998/03/08",111,112,109
"1998/03/09",112,113,110
"1998/03/10",113,114,111
"1998/03/11",113,114,111
"1998/03/12",117,121,112
"1998/03/13",121,123,119
"1998/03/14",119,121,118
"1998/03/15",117,123,105
"1998/03/16",115,117,113
"1998/03/17",116,120,109
"1998/03/18",116,119,114
"1998/03/19",116,118,114
"1998/03/20",115,120,109
"1998/03/21",119,121,115
"1998/03/22",118,121,111
"1998/03/23",112,114,110
"1998/03/24",113,114,111
"1998/03/25",114,115,112
"1998/03/26",113,114,112
"1998/03/27",114,117,112
"1998/03/28",116,117,115
"1998/03/29",116,117,114
"1998/03/30",116,118,115
"1998/03/31",116,119,108
"1998/04/01",118,120,115
"1998/04/02",121,125,111
"1998/04/03",121,124,116
"1998/04/04",115,119,110
"1998/04/05",110,112,109
"1998/04/06",111,113,109
"1998/04/07",115,119,111
"1998/04/08",122,124,120
"1998/04/09",120,123,113
"1998/04/10",122,124,120
"1998/04/11",121,129,119
"1998/04/12",121,122,114
"1998/04/13",120,122,116
"1998/04/14",119,122,117
"1998/04/15",124,131,114
"1998/04/16",130,133,127
"1998/04/17",127,130,120
"1998/04/18",124,127,119
"1998/04/19",117,120,111
"1998/04/20",110,112,108
"1998/04/21",109,110,107
"1998/04/22",109,111,108
"1998/04/23",110,111,108
"1998/04/24",112,114,110
"1998/04/25",112,114,105
"1998/04/26",112,117,104
"1998/04/27",118,120,116
"1998/04/28",120,121,119
"1998/04/29",117,121,111
"1998/04/30",111,114,107
"1998/05/01",109,111,107
"1998/05/02",108,109,105
"1998/05/03",107,114, 96
"1998/05/04",109,113,100
"1998/05/05",109,110,108
"1998/05/06",109,110,108
"1998/05/07",110,112,109
"1998/05/08",110,115,107
"1998/05/09",117,120,109
"1998/05/10",119,121,112
"1998/05/11",119,122,111
"1998/05/12",118,124,111
"1998/05/13",111,115,102
"1998/05/14",110,112,109
"1998/05/15",111,112,109
"1998/05/16",110,111,109
"1998/05/17",114,118,110
"1998/05/18",120,122,117
"1998/05/19",123,128,118
"1998/05/20",116,118,111
"1998/05/21",111,112,109
"1998/05/22",110,112,105
"1998/05/23",110,111,109
"1998/05/24",111,115,109
"1998/05/25",115,120,111
"1998/05/26",118,122,114
"1998/05/27",116,120,113
"1998/05/28",112,115,108
"1998/05/29",111,113,109
"1998/05/30",113,115,112
"1998/05/31",114,116,113
"1998/06/01",114,116,113
"1998/06/02",114,117,108
"1998/06/03",116,120,108
"1998/06/04",118,120,113
"1998/06/05",111,115,103
"1998/06/06",108,114,101
"1998/06/07",112,115,103
"1998/06/08",114,115,112
"1998/06/09",114,115,113
"1998/06/10",118,126,110
"1998/06/11",122,126,117
"1998/06/12",115,120,110
"1998/06/13",112,114,110
"1998/06/14",117,123,113
"1998/06/15",125,128,120
"1998/06/16",125,128,118
"1998/06/17",117,121,111
"1998/06/18",111,114,108
"1998/06/19",111,113,109
"1998/06/20",113,115,108
"1998/06/21",114,116,113
"1998/06/22",121,132,112
"1998/06/23",128,132,123
"1998/06/24",121,125,115
"1998/06/25",114,118,109
"1998/06/26",109,112,105
"1998/06/27",107,109,106
"1998/06/28",109,110,107
"1998/06/29",112,114,110
"1998/06/30",114,124,113
"1998/07/01",115,116,114
"1998/07/02",115,117,114
"1998/07/03",116,117,115
"1998/07/04",117,118,115
"1998/07/05",116,117,113
"1998/07/06",115,116,115
"1998/07/07",116,117,115
"1998/07/08",116,116,114
"1998/07/09",116,120,113
"1998/07/10",123,128,117
"1998/07/11",125,130,115
"1998/07/12",118,122,111
"1998/07/13",118,120,113
"1998/07/14",117,120,112
"1998/07/15",112,114,109
"1998/07/16",110,112,108
"1998/07/17",110,113,106
"1998/07/18",112,113,109
"1998/07/19",112,113,111
"1998/07/20",113,114,111
"1998/07/21",111,114,104
"1998/07/22",114,119,109
"1998/07/23",128,135,112
"1998/07/24",136,139,133
"1998/07/25",133,137,124
"1998/07/26",131,133,126
"1998/07/27",126,129,121
"1998/07/28",120,124,117
"1998/07/29",116,118,112
"1998/07/30",115,118,109
"1998/07/31",118,119,116
"1998/08/01",116,119,115
"1998/08/02",113,116,110
"1998/08/03",112,114,111
"1998/08/04",114,115,113
"1998/08/05",115,117,112
"1998/08/06",116,117,112
"1998/08/07",117,120,111
"1998/08/08",114,119,108
"1998/08/09",111,112,110
"1998/08/10",111,112,110
"1998/08/11",112,113,110
"1998/08/12",112,114,111
"1998/08/13",114,118,110
"1998/08/14",120,122,117
"1998/08/15",117,122,112
"1998/08/16",111,116,108
"1998/08/17",111,112,106
"1998/08/18",111,112,108
"1998/08/19",112,113,111
"1998/08/20",112,112,110
"1998/08/21",113,115,111
"1998/08/22",113,114,109
"1998/08/23",113,114,112
"1998/08/24",113,114,112
"1998/08/25",112,114,111
"1998/08/26",113,115,111
"1998/08/27",115,117,114
"1998/08/28",117,119,115
"1998/08/29",121,126,118
"1998/08/30",130,138,124
"1998/08/31",142,146,133
"1998/09/01",148,152,142
"1998/09/02",153,154,148
"1998/09/03",152,155,149
"1998/09/04",148,152,144
"1998/09/05",142,146,137
"1998/09/06",135,139,130
"1998/09/07",130,132,127
"1998/09/08",127,130,120
"1998/09/09",121,125,116
"1998/09/10",117,119,115
"1998/09/11",114,117,109
"1998/09/12",111,114,109
"1998/09/13",111,112,108
"1998/09/14",111,112,109
"1998/09/15",113,116,111
"1998/09/16",128,144,107
"1998/09/17",150,156,144
"1998/09/18",158,159,155
"1998/09/19",159,161,157
"1998/09/20",156,159,152
"1998/09/21",152,155,147
"1998/09/22",150,153,143
"1998/09/23",149,150,148
"1998/09/24",147,149,144
"1998/09/25",143,147,141
"1998/09/26",140,144,136
"1998/09/27",140,143,136
"1998/09/28",142,144,140
"1998/09/29",140,143,134
"1998/09/30",136,141,133
"1998/10/01",137,144,133
"1998/10/02",143,145,141
"1998/10/03",141,144,137
"1998/10/04",136,140,125
"1998/10/05",130,134,126
"1998/10/06",127,129,124
"1998/10/07",121,124,119
"1998/10/08",118,121,116
"1998/10/09",114,118,112
"1998/10/10",112,114,110
"1998/10/11",112,114,108
"1998/10/12",112,114,109
"1998/10/13",114,115,111
"1998/10/14",117,118,114
"1998/10/15",118,119,116
"1998/10/16",115,119,107
"1998/10/17",117,124,108
"1998/10/18",122,127,110
"1998/10/19",125,127,124
"1998/10/20",124,126,123
"1998/10/21",121,125,118
"1998/10/22",121,125,112
"1998/10/23",125,127,121
"1998/10/24",123,127,120
"1998/10/25",119,123,117
"1998/10/26",116,120,113
"1998/10/27",116,117,115
"1998/10/28",117,118,115
"1998/10/29",119,120,118
"1998/10/30",120,121,118
"1998/10/31",121,124,119
"1998/11/01",122,124,120
"1998/11/02",123,124,122
"1998/11/03",123,125,121
"1998/11/04",124,128,123
"1998/11/05",125,127,122
"1998/11/06",125,127,119
"1998/11/07",126,127,124
"1998/11/08",126,127,124
"1998/11/09",125,127,123
"1998/11/10",127,128,124
"1998/11/11",128,129,126
"1998/11/12",122,128,117
"1998/11/13",120,121,118
"1998/11/14",120,123,119
"1998/11/15",121,122,120
"1998/11/16",121,122,120
"1998/11/17",122,124,119
"1998/11/18",123,125,120
"1998/11/19",123,125,121
"1998/11/20",123,125,121
"1998/11/21",123,125,121
"1998/11/22",124,126,122
"1998/11/23",124,125,122
"1998/11/24",124,126,123
"1998/11/25",124,126,123
"1998/11/26",124,126,122
"1998/11/27",125,126,124
"1998/11/28",125,128,124
"1998/11/29",126,127,125
"1998/11/30",126,127,125
"1998/12/01",127,129,125
"1998/12/02",128,130,122
"1998/12/03",130,132,127
"1998/12/04",132,133,130
"1998/12/05",132,134,131
"1998/12/06",130,131,127
"1998/12/07",126,129,124
"1998/12/08",123,126,122
"1998/12/09",125,127,124
"1998/12/10",126,127,125
"1998/12/11",126,128,125
"1998/12/12",126,128,124
"1998/12/13",126,128,122
"1998/12/14",121,122,120
"1998/12/15",122,123,121
"1998/12/16",123,124,122
"1998/12/17",123,124,122
"1998/12/18",124,125,122
"1998/12/19",124,125,123
"1998/12/20",124,128,119
"1998/12/21",124,125,121
"1998/12/22",125,126,124
"1998/12/23",126,127,124
"1998/12/24",126,128,125
"1998/12/25",126,127,125
"1998/12/26",127,129,126
"1998/12/27",127,129,126
"1998/12/28",126,129,121
"1998/12/29",121,122,120
"1998/12/30",121,124,120
"1998/12/31",122,124,120
